Location: Fairhaven
(34.9340°N, 89.7987°W)
Time: 00:18:09
(UTC+00:00)

IGS 5A - Pass Details

Date: 13 February 2026
Orbit: 551 x 554 km, 97.4° (Epoch: 8 January)

Event Time Altitude Azimuth Distance (km) Brightness Sun altitude
Rises 12:14:43 0° 360° (N) 2,733 6.8 -7.3°
Reaches altitude 10° 12:17:00 10° 350° (N) 1,835 5.8 -6.8°
Maximum altitude 12:20:32 32° 287° (WNW) 964 4.0 -6.1°
Drops below altitude 10° 12:24:04 10° 224° (SW) 1,824 5.7 -5.4°
Sets 12:26:20 0° 214° (SW) 2,713 6.6 -4.9°
